Location: Czekanka
(50.4925°N, 19.2643°E)
Time: 06:29:06
(UTC+00:00)

SL-16 R/B - Pass Details

Date: 27 September 2024
Orbit: 842 x 846 km, 71.0° (Epoch: 05 October)

Event Time Altitude Azimuth Distance (km) Brightness Sun altitude
Rises 03:56:40 0° 316° (NW) 3,409 5.0 -7.3°
Reaches altitude 10° 04:00:29 10° 291° (WNW) 2,468 4.1 -6.7°
Maximum altitude 04:02:59 13° 264° (W) 2,245 3.7 -6.3°
Drops below altitude 10° 04:05:29 10° 238° (WSW) 2,459 4.1 -5.9°
Sets 04:09:18 0° 212° (SSW) 3,388 5.0 -5.3°
